Time,TemperatureF,DewpointF,PressureIn,WindDirection,WindDirectionDegrees,WindSpeedMPH,WindSpeedGustMPH,Humidity,HourlyPrecipIn,Conditions,Clouds,dailyrainin,SoftwareType,DateUTC
2013-06-13 00:01:00,63.0,54.5,29.70,North,0,0.0,0.0,74,0.00,,,0.00,WUHU216HW,2013-06-13 04:01:00,
2013-06-13 00:02:00,63.0,54.5,29.70,North,0,0.0,0.0,74,0.00,,,0.00,WUHU216HW,2013-06-13 04:02:00,
2013-06-13 00:07:00,62.8,54.4,29.70,North,0,0.0,0.0,74,0.00,,,0.00,WUHU216HW,2013-06-13 04:07:00,
2013-06-13 00:12:00,63.0,54.9,29.70,North,0,0.0,0.0,75,0.00,,,0.00,WUHU216HW,2013-06-13 04:12:00,
2013-06-13 00:17:00,63.0,54.9,29.70,North,0,0.0,0.0,75,0.00,,,0.00,WUHU216HW,2013-06-13 04:17:00,
2013-06-13 00:22:00,63.2,55.1,29.71,North,0,0.0,0.0,75,0.00,,,0.00,WUHU216HW,2013-06-13 04:22:00,
2013-06-13 00:27:00,63.4,55.3,29.71,North,0,0.0,0.0,75,0.00,,,0.00,WUHU216HW,2013-06-13 04:27:00,
2013-06-13 00:32:00,63.5,55.4,29.71,North,0,0.0,0.0,75,0.00,,,0.00,WUHU216HW,2013-06-13 04:32:00,
2013-06-13 00:37:00,63.5,55.8,29.70,North,0,0.0,0.0,76,0.00,,,0.00,WUHU216HW,2013-06-13 04:37:00,
2013-06-13 00:42:00,63.7,56.0,29.70,North,0,0.0,0.0,76,0.00,,,0.00,WUHU216HW,2013-06-13 04:42:00,
2013-06-13 00:47:00,63.5,55.4,29.69,North,0,0.0,0.0,75,0.00,,,0.00,WUHU216HW,2013-06-13 04:47:00,
2013-06-13 00:53:00,63.4,55.6,29.69,North,0,0.0,0.0,76,0.00,,,0.00,WUHU216HW,2013-06-13 04:53:00,
2013-06-13 00:58:00,63.0,55.3,29.69,North,0,0.0,0.0,76,0.00,,,0.00,WUHU216HW,2013-06-13 04:58:00,
2013-06-13 01:03:00,62.8,55.1,29.69,North,0,0.0,0.0,76,0.00,,,0.00,WUHU216HW,2013-06-13 05:03:00,
2013-06-13 01:08:00,62.6,54.5,29.68,North,0,0.0,0.0,75,0.00,,,0.00,WUHU216HW,2013-06-13 05:08:00,
2013-06-13 01:13:00,62.6,54.9,29.68,North,0,0.0,0.0,76,0.00,,,0.00,WUHU216HW,2013-06-13 05:13:00,
2013-06-13 01:18:00,62.5,55.1,29.68,North,0,0.0,0.0,77,0.00,,,0.00,WUHU216HW,2013-06-13 05:18:00,
2013-06-13 01:23:00,62.5,55.4,29.68,North,0,0.0,0.0,78,0.00,,,0.00,WUHU216HW,2013-06-13 05:23:00,
2013-06-13 01:28:00,62.5,55.4,29.67,North,0,0.0,0.0,78,0.00,,,0.00,WUHU216HW,2013-06-13 05:28:00,
2013-06-13 01:33:00,62.3,54.9,29.67,North,0,0.0,0.0,77,0.00,,,0.00,WUHU216HW,2013-06-13 05:33:00,
2013-06-13 01:38:00,62.3,54.9,29.68,North,0,0.0,0.0,77,0.00,,,0.00,WUHU216HW,2013-06-13 05:38:00,
2013-06-13 01:43:00,62.1,55.5,29.68,North,0,0.0,0.0,79,0.00,,,0.00,WUHU216HW,2013-06-13 05:43:00,
2013-06-13 01:48:00,62.3,55.6,29.68,North,0,0.0,0.0,79,0.00,,,0.00,WUHU216HW,2013-06-13 05:48:00,
2013-06-13 01:53:00,62.3,55.6,29.68,North,0,0.0,0.0,79,0.00,,,0.00,WUHU216HW,2013-06-13 05:53:00,
2013-06-13 01:58:00,62.3,56.0,29.67,North,0,0.0,0.0,80,0.00,,,0.00,WUHU216HW,2013-06-13 05:58:00,
2013-06-13 02:03:00,62.3,55.6,29.68,North,0,0.0,0.0,79,0.00,,,0.00,WUHU216HW,2013-06-13 06:03:00,
2013-06-13 02:08:00,62.3,55.6,29.68,North,0,0.0,0.0,79,0.00,,,0.00,WUHU216HW,2013-06-13 06:08:00,
2013-06-13 02:14:00,62.3,55.6,29.68,North,0,0.0,0.0,79,0.00,,,0.00,WUHU216HW,2013-06-13 06:14:00,
2013-06-13 02:19:00,62.1,55.5,29.68,North,0,0.0,0.0,79,0.00,,,0.00,WUHU216HW,2013-06-13 06:19:00,
2013-06-13 02:24:00,62.1,55.5,29.67,North,0,0.0,0.0,79,0.00,,,0.00,WUHU216HW,2013-06-13 06:24:00,
2013-06-13 02:29:00,62.1,55.5,29.67,North,0,0.0,0.0,79,0.00,,,0.00,WUHU216HW,2013-06-13 06:29:00,
2013-06-13 02:34:00,62.1,55.9,29.66,North,0,0.0,0.0,80,0.00,,,0.00,WUHU216HW,2013-06-13 06:34:00,
2013-06-13 02:39:00,62.3,56.0,29.66,North,0,0.0,0.0,80,0.00,,,0.00,WUHU216HW,2013-06-13 06:39:00,
2013-06-13 02:44:00,62.3,56.0,29.67,North,0,0.0,0.0,80,0.00,,,0.00,WUHU216HW,2013-06-13 06:44:00,
2013-06-13 02:49:00,62.3,56.3,29.66,North,0,0.0,0.0,81,0.00,,,0.00,WUHU216HW,2013-06-13 06:49:00,
2013-06-13 02:54:00,62.3,56.3,29.67,North,0,0.0,0.0,81,0.00,,,0.00,WUHU216HW,2013-06-13 06:54:00,
2013-06-13 02:59:00,62.5,56.5,29.67,North,0,0.0,0.0,81,0.00,,,0.00,WUHU216HW,2013-06-13 06:59:00,
2013-06-13 03:04:00,62.6,56.7,29.67,North,0,0.0,0.0,81,0.00,,,0.00,WUHU216HW,2013-06-13 07:04:00,
2013-06-13 03:09:00,62.8,57.3,29.67,North,0,0.0,0.0,82,0.00,,,0.00,WUHU216HW,2013-06-13 07:09:00,
2013-06-13 03:14:00,63.0,57.1,29.68,North,0,0.0,0.0,81,0.00,,,0.00,WUHU216HW,2013-06-13 07:14:00,
2013-06-13 03:19:00,63.0,57.1,29.67,North,0,0.0,0.0,81,0.00,,,0.00,WUHU216HW,2013-06-13 07:19:00,
2013-06-13 03:25:00,63.4,57.1,29.66,North,0,0.0,0.0,80,0.00,,,0.00,WUHU216HW,2013-06-13 07:25:00,
2013-06-13 03:30:00,63.4,57.1,29.66,North,0,0.0,0.0,80,0.00,,,0.00,WUHU216HW,2013-06-13 07:30:00,
2013-06-13 03:35:00,63.5,57.2,29.66,North,0,0.0,0.0,80,0.00,,,0.00,WUHU216HW,2013-06-13 07:35:00,
2013-06-13 03:40:00,63.5,57.2,29.66,North,0,0.0,0.0,80,0.00,,,0.00,WUHU216HW,2013-06-13 07:40:00,
2013-06-13 03:45:00,63.5,56.9,29.65,North,0,0.0,0.0,79,0.00,,,0.00,WUHU216HW,2013-06-13 07:45:00,
2013-06-13 03:50:00,63.5,56.9,29.65,North,0,0.0,0.0,79,0.00,,,0.00,WUHU216HW,2013-06-13 07:50:00,
2013-06-13 03:55:00,63.5,56.9,29.65,North,0,0.0,0.0,79,0.00,,,0.00,WUHU216HW,2013-06-13 07:55:00,
2013-06-13 04:00:00,63.5,57.2,29.65,North,0,0.0,0.0,80,0.00,,,0.00,WUHU216HW,2013-06-13 08:00:00,
2013-06-13 04:05:00,63.7,57.1,29.64,North,0,0.0,0.0,79,0.00,,,0.00,WUHU216HW,2013-06-13 08:05:00,
2013-06-13 04:10:00,63.7,57.1,29.65,North,0,0.0,0.0,79,0.00,,,0.00,WUHU216HW,2013-06-13 08:10:00,
2013-06-13 04:15:00,63.7,57.1,29.65,North,0,0.0,0.0,79,0.00,,,0.00,WUHU216HW,2013-06-13 08:15:00,
2013-06-13 04:20:00,63.7,57.4,29.64,North,0,0.0,0.0,80,0.00,,,0.00,WUHU216HW,2013-06-13 08:20:00,
2013-06-13 04:25:00,63.9,57.2,29.64,North,0,0.0,0.0,79,0.00,,,0.00,WUHU216HW,2013-06-13 08:25:00,
2013-06-13 04:30:00,63.7,57.1,29.64,North,0,0.0,0.0,79,0.00,,,0.00,WUHU216HW,2013-06-13 08:30:00,
2013-06-13 04:35:00,63.7,57.1,29.65,North,0,0.0,0.0,79,0.00,,,0.00,WUHU216HW,2013-06-13 08:35:00,
2013-06-13 04:40:00,63.7,57.4,29.65,North,0,0.0,0.0,80,0.00,,,0.00,WUHU216HW,2013-06-13 08:40:00,
2013-06-13 04:45:00,63.7,57.4,29.65,North,0,0.0,0.0,80,0.00,,,0.00,WUHU216HW,2013-06-13 08:45:00,
2013-06-13 04:50:00,63.5,57.2,29.64,North,0,0.0,0.0,80,0.00,,,0.00,WUHU216HW,2013-06-13 08:50:00,
2013-06-13 04:55:00,63.4,57.4,29.65,North,0,0.0,0.0,81,0.00,,,0.00,WUHU216HW,2013-06-13 08:55:00,
2013-06-13 05:00:00,63.2,57.9,29.65,North,0,0.0,0.0,83,0.00,,,0.00,WUHU216HW,2013-06-13 09:00:00,
2013-06-13 05:06:00,63.0,57.7,29.64,North,0,0.0,0.0,83,0.00,,,0.00,WUHU216HW,2013-06-13 09:06:00,
2013-06-13 05:11:00,62.6,57.7,29.64,North,0,0.0,0.0,84,0.00,,,0.00,WUHU216HW,2013-06-13 09:11:00,
2013-06-13 05:16:00,62.5,57.9,29.64,North,0,0.0,0.0,85,0.00,,,0.00,WUHU216HW,2013-06-13 09:16:00,
2013-06-13 05:21:00,62.3,57.3,29.65,North,0,0.0,0.0,84,0.00,,,0.00,WUHU216HW,2013-06-13 09:21:00,
2013-06-13 05:26:00,62.3,57.7,29.64,North,0,0.0,0.0,85,0.00,,,0.00,WUHU216HW,2013-06-13 09:26:00,
2013-06-13 05:31:00,62.1,57.5,29.64,North,0,0.0,0.0,85,0.00,,,0.00,WUHU216HW,2013-06-13 09:31:00,
2013-06-13 05:36:00,62.1,57.9,29.64,North,0,0.0,0.0,86,0.00,,,0.00,WUHU216HW,2013-06-13 09:36:00,
2013-06-13 05:41:00,62.1,57.5,29.63,North,0,0.0,0.0,85,0.00,,,0.00,WUHU216HW,2013-06-13 09:41:00,
2013-06-13 05:46:00,61.9,57.7,29.63,North,0,0.0,0.0,86,0.00,,,0.00,WUHU216HW,2013-06-13 09:46:00,
2013-06-13 05:51:00,61.9,57.7,29.63,North,0,0.0,0.0,86,0.00,,,0.00,WUHU216HW,2013-06-13 09:51:00,
2013-06-13 05:56:00,61.9,57.7,29.62,North,0,0.0,0.0,86,0.00,,,0.00,WUHU216HW,2013-06-13 09:56:00,
2013-06-13 06:01:00,61.7,57.9,29.62,North,0,0.0,0.0,87,0.00,,,0.00,WUHU216HW,2013-06-13 10:01:00,
2013-06-13 06:06:00,61.7,57.9,29.62,North,0,0.0,0.0,87,0.00,,,0.00,WUHU216HW,2013-06-13 10:06:00,
2013-06-13 06:11:00,61.7,57.9,29.62,North,0,0.0,0.0,87,0.00,,,0.00,WUHU216HW,2013-06-13 10:11:00,
2013-06-13 06:16:00,61.6,57.7,29.62,North,0,0.0,0.0,87,0.00,,,0.00,WUHU216HW,2013-06-13 10:16:00,
2013-06-13 06:21:00,61.6,57.7,29.61,North,0,0.0,0.0,87,0.00,,,0.00,WUHU216HW,2013-06-13 10:21:00,
2013-06-13 06:26:00,61.6,57.7,29.61,North,0,0.0,0.0,87,0.00,,,0.00,WUHU216HW,2013-06-13 10:26:00,
2013-06-13 06:31:00,61.7,58.2,29.61,North,0,0.0,0.0,88,0.00,,,0.00,WUHU216HW,2013-06-13 10:31:00,
2013-06-13 06:36:00,61.7,58.2,29.61,North,0,0.0,0.0,88,0.00,,,0.00,WUHU216HW,2013-06-13 10:36:00,
2013-06-13 06:41:00,61.7,57.9,29.60,North,0,0.0,0.0,87,0.00,,,0.00,WUHU216HW,2013-06-13 10:41:00,
2013-06-13 06:47:00,61.9,58.1,29.60,North,0,0.0,0.0,87,0.00,,,0.00,WUHU216HW,2013-06-13 10:47:00,
2013-06-13 06:52:00,61.9,58.4,29.60,North,0,0.0,0.0,88,0.00,,,0.00,WUHU216HW,2013-06-13 10:52:00,
2013-06-13 06:57:00,62.1,58.6,29.60,North,0,0.0,0.0,88,0.00,,,0.00,WUHU216HW,2013-06-13 10:57:00,
2013-06-13 07:02:00,61.9,58.4,29.59,North,0,0.0,0.0,88,0.00,,,0.00,WUHU216HW,2013-06-13 11:02:00,
2013-06-13 07:07:00,62.1,58.6,29.59,North,0,0.0,0.0,88,0.00,,,0.00,WUHU216HW,2013-06-13 11:07:00,
2013-06-13 07:12:00,61.9,58.7,29.59,North,0,0.0,0.0,89,0.00,,,0.00,WUHU216HW,2013-06-13 11:12:00,
2013-06-13 07:17:00,61.7,58.5,29.57,North,0,0.0,0.0,89,0.00,,,0.00,WUHU216HW,2013-06-13 11:17:00,
2013-06-13 07:22:00,61.9,58.4,29.57,North,0,0.0,0.0,88,0.00,,,0.00,WUHU216HW,2013-06-13 11:22:00,
2013-06-13 07:27:00,61.9,58.4,29.60,North,0,0.0,0.0,88,0.00,,,0.00,WUHU216HW,2013-06-13 11:27:00,
2013-06-13 07:32:00,61.7,58.2,29.60,North,0,0.0,0.0,88,0.00,,,0.00,WUHU216HW,2013-06-13 11:32:00,
2013-06-13 07:37:00,62.1,58.6,29.59,North,0,0.0,0.0,88,0.00,,,0.00,WUHU216HW,2013-06-13 11:37:00,
2013-06-13 07:42:00,62.3,58.7,29.59,North,0,0.0,0.0,88,0.00,,,0.00,WUHU216HW,2013-06-13 11:42:00,
2013-06-13 07:47:00,62.8,59.0,29.58,North,0,0.0,0.0,87,0.00,,,0.00,WUHU216HW,2013-06-13 11:47:00,
2013-06-13 07:52:00,63.0,59.1,29.59,North,0,0.0,0.0,87,0.00,,,0.00,WUHU216HW,2013-06-13 11:52:00,
2013-06-13 07:57:00,63.4,59.1,29.58,North,0,0.0,0.0,86,0.00,,,0.00,WUHU216HW,2013-06-13 11:57:00,
2013-06-13 08:02:00,63.7,59.5,29.58,North,0,0.0,0.0,86,0.00,,,0.00,WUHU216HW,2013-06-13 12:02:00,
2013-06-13 08:07:00,63.9,59.3,29.59,North,0,0.0,0.0,85,0.00,,,0.00,WUHU216HW,2013-06-13 12:07:00,
2013-06-13 08:12:00,63.9,59.0,29.59,North,0,0.0,0.0,84,0.00,,,0.00,WUHU216HW,2013-06-13 12:12:00,
2013-06-13 08:17:00,63.7,58.8,29.58,North,0,0.0,0.0,84,0.00,,,0.00,WUHU216HW,2013-06-13 12:17:00,
2013-06-13 08:23:00,63.7,59.1,29.58,North,0,0.0,0.0,85,0.00,,,0.00,WUHU216HW,2013-06-13 12:23:00,
2013-06-13 08:28:00,63.9,59.0,29.58,North,0,0.0,0.0,84,0.00,,,0.00,WUHU216HW,2013-06-13 12:28:00,
2013-06-13 08:33:00,63.9,59.0,29.57,North,0,0.0,0.0,84,0.00,,,0.00,WUHU216HW,2013-06-13 12:33:00,
2013-06-13 08:38:00,63.9,59.0,29.57,North,0,0.0,0.0,84,0.00,,,0.00,WUHU216HW,2013-06-13 12:38:00,
2013-06-13 08:43:00,63.9,59.0,29.57,North,0,0.0,0.0,84,0.00,,,0.00,WUHU216HW,2013-06-13 12:43:00,
2013-06-13 08:48:00,63.7,58.4,29.57,North,0,0.0,0.0,83,0.00,,,0.00,WUHU216HW,2013-06-13 12:48:00,
2013-06-13 08:53:00,63.7,58.8,29.57,North,0,0.0,0.0,84,0.00,,,0.00,WUHU216HW,2013-06-13 12:53:00,
2013-06-13 08:58:00,63.9,58.6,29.58,North,0,0.0,0.0,83,0.00,,,0.00,WUHU216HW,2013-06-13 12:58:00,
2013-06-13 09:03:00,63.9,59.0,29.57,North,0,0.0,0.0,84,0.00,,,0.00,WUHU216HW,2013-06-13 13:03:00,
2013-06-13 09:08:00,63.9,59.3,29.56,North,0,0.0,0.0,85,0.00,,,0.00,WUHU216HW,2013-06-13 13:08:00,
2013-06-13 09:13:00,64.1,59.5,29.56,North,0,0.0,0.0,85,0.00,,,0.00,WUHU216HW,2013-06-13 13:13:00,
2013-06-13 09:18:00,64.3,59.7,29.55,North,0,0.0,0.0,85,0.00,,,0.00,WUHU216HW,2013-06-13 13:18:00,
2013-06-13 09:23:00,64.3,60.0,29.55,North,0,0.0,0.0,86,0.00,,,0.00,WUHU216HW,2013-06-13 13:23:00,
2013-06-13 09:28:00,64.4,60.6,29.51,North,0,0.0,0.0,87,0.00,,,0.00,WUHU216HW,2013-06-13 13:28:00,
2013-06-13 09:33:00,64.4,60.2,29.51,North,0,0.0,0.0,86,0.00,,,0.00,WUHU216HW,2013-06-13 13:33:00,
2013-06-13 09:38:00,64.1,59.5,29.54,North,0,0.0,0.0,85,0.00,,,0.00,WUHU216HW,2013-06-13 13:38:00,
2013-06-13 09:43:00,64.1,59.5,29.51,North,0,0.0,0.0,85,0.00,,,0.00,WUHU216HW,2013-06-13 13:43:00,
2013-06-13 09:48:00,63.7,59.1,29.53,North,0,0.0,0.0,85,0.00,,,0.00,WUHU216HW,2013-06-13 13:48:00,
2013-06-13 09:53:00,63.4,59.1,29.54,North,0,0.0,0.0,86,0.00,,,0.00,WUHU216HW,2013-06-13 13:53:00,
2013-06-13 09:58:00,62.5,58.9,29.52,North,0,0.0,0.0,88,0.00,,,0.00,WUHU216HW,2013-06-13 13:58:00,
2013-06-13 10:03:00,61.9,58.7,29.51,North,0,0.0,0.0,89,0.00,,,0.00,WUHU216HW,2013-06-13 14:03:00,
2013-06-13 10:08:00,61.6,58.3,29.53,North,0,0.0,0.0,89,0.00,,,0.00,WUHU216HW,2013-06-13 14:08:00,
2013-06-13 10:13:00,61.6,58.3,29.55,North,0,0.0,0.0,89,0.00,,,0.00,WUHU216HW,2013-06-13 14:13:00,
2013-06-13 10:19:00,61.4,58.8,29.55,North,0,0.0,0.0,91,0.00,,,0.00,WUHU216HW,2013-06-13 14:19:00,
2013-06-13 10:24:00,61.2,58.9,29.52,North,0,0.0,0.0,92,0.00,,,0.00,WUHU216HW,2013-06-13 14:24:00,
2013-06-13 10:29:00,61.0,58.4,29.51,North,0,0.0,0.0,91,0.00,,,0.00,WUHU216HW,2013-06-13 14:29:00,
2013-06-13 10:34:00,60.8,58.5,29.51,North,0,0.0,0.0,92,0.00,,,0.00,WUHU216HW,2013-06-13 14:34:00,
2013-06-13 10:39:00,61.0,58.7,29.50,North,0,0.0,0.0,92,0.00,,,0.00,WUHU216HW,2013-06-13 14:39:00,
2013-06-13 10:44:00,61.2,58.9,29.50,North,0,0.0,0.0,92,0.00,,,0.00,WUHU216HW,2013-06-13 14:44:00,
2013-06-13 10:49:00,61.6,59.2,29.49,North,0,0.0,0.0,92,0.00,,,0.00,WUHU216HW,2013-06-13 14:49:00,
2013-06-13 10:54:00,61.7,59.4,29.49,North,0,0.0,0.0,92,0.00,,,0.00,WUHU216HW,2013-06-13 14:54:00,
2013-06-13 10:59:00,62.3,59.9,29.49,North,0,0.0,0.0,92,0.00,,,0.00,WUHU216HW,2013-06-13 14:59:00,
2013-06-13 11:04:00,62.8,60.5,29.49,North,0,0.0,0.0,92,0.00,,,0.00,WUHU216HW,2013-06-13 15:04:00,
2013-06-13 11:09:00,63.4,61.0,29.49,North,0,0.0,0.0,92,0.00,,,0.00,WUHU216HW,2013-06-13 15:09:00,
2013-06-13 11:14:00,63.5,61.2,29.49,North,0,0.0,0.0,92,0.00,,,0.00,WUHU216HW,2013-06-13 15:14:00,
2013-06-13 11:19:00,63.5,60.9,29.50,North,0,0.0,0.0,91,0.00,,,0.00,WUHU216HW,2013-06-13 15:19:00,
2013-06-13 11:24:00,63.7,61.1,29.50,North,0,0.0,0.0,91,0.00,,,0.00,WUHU216HW,2013-06-13 15:24:00,
2013-06-13 11:29:00,63.7,61.1,29.50,North,0,0.0,0.0,91,0.00,,,0.00,WUHU216HW,2013-06-13 15:29:00,
2013-06-13 11:34:00,63.7,61.1,29.49,North,0,0.0,0.0,91,0.00,,,0.00,WUHU216HW,2013-06-13 15:34:00,
2013-06-13 11:39:00,63.9,61.3,29.48,North,0,0.0,0.0,91,0.00,,,0.00,WUHU216HW,2013-06-13 15:39:00,
2013-06-13 11:44:00,63.9,61.3,29.46,North,0,0.0,0.0,91,0.00,,,0.00,WUHU216HW,2013-06-13 15:44:00,
2013-06-13 11:49:00,63.9,61.0,29.45,North,0,0.0,0.0,90,0.00,,,0.00,WUHU216HW,2013-06-13 15:49:00,
2013-06-13 11:55:00,63.9,61.0,29.43,North,0,0.0,0.0,90,0.00,,,0.00,WUHU216HW,2013-06-13 15:55:00,
2013-06-13 12:00:00,63.9,61.0,29.42,North,0,0.0,0.0,90,0.00,,,0.00,WUHU216HW,2013-06-13 16:00:00,
2013-06-13 12:05:00,64.4,61.6,29.43,North,0,0.0,0.0,90,0.00,,,0.00,WUHU216HW,2013-06-13 16:05:00,
2013-06-13 12:10:00,65.7,62.7,29.44,North,0,0.0,0.0,90,0.00,,,0.00,WUHU216HW,2013-06-13 16:10:00,
2013-06-13 12:15:00,65.9,62.8,29.45,North,0,0.0,0.0,90,0.00,,,0.00,WUHU216HW,2013-06-13 16:15:00,
2013-06-13 12:20:00,65.2,61.8,29.45,North,0,0.0,0.0,89,0.00,,,0.00,WUHU216HW,2013-06-13 16:20:00,
2013-06-13 12:25:00,65.0,61.4,29.45,North,0,0.0,0.0,88,0.00,,,0.00,WUHU216HW,2013-06-13 16:25:00,
2013-06-13 12:30:00,65.0,61.8,29.44,North,0,0.0,0.0,89,0.00,,,0.00,WUHU216HW,2013-06-13 16:30:00,
2013-06-13 12:35:00,65.2,61.8,29.44,North,0,0.0,0.0,89,0.00,,,0.00,WUHU216HW,2013-06-13 16:35:00,
2013-06-13 12:40:00,65.5,61.8,29.43,North,0,0.0,0.0,88,0.00,,,0.00,WUHU216HW,2013-06-13 16:40:00,
2013-06-13 12:45:00,65.5,61.8,29.42,North,0,0.0,0.0,88,0.00,,,0.00,WUHU216HW,2013-06-13 16:45:00,
2013-06-13 12:50:00,65.5,61.8,29.43,North,0,0.0,0.0,88,0.00,,,0.00,WUHU216HW,2013-06-13 16:50:00,
2013-06-13 12:55:00,66.2,62.8,29.43,North,0,0.0,0.0,89,0.00,,,0.00,WUHU216HW,2013-06-13 16:55:00,
2013-06-13 13:00:00,66.8,63.1,29.43,North,0,0.0,0.0,88,0.00,,,0.00,WUHU216HW,2013-06-13 17:00:00,
2013-06-13 13:05:00,66.6,62.9,29.44,North,0,0.0,0.0,88,0.00,,,0.00,WUHU216HW,2013-06-13 17:05:00,
2013-06-13 13:11:00,66.2,62.6,29.43,North,0,0.0,0.0,88,0.00,,,0.00,WUHU216HW,2013-06-13 17:11:00,
2013-06-13 13:16:00,66.2,62.6,29.43,North,0,0.0,0.0,88,0.00,,,0.00,WUHU216HW,2013-06-13 17:16:00,
2013-06-13 13:21:00,66.4,62.7,29.43,North,0,0.0,0.0,88,0.00,,,0.00,WUHU216HW,2013-06-13 17:21:00,
2013-06-13 13:26:00,66.2,62.6,29.42,North,0,0.0,0.0,88,0.00,,,0.00,WUHU216HW,2013-06-13 17:26:00,
2013-06-13 13:31:00,66.2,62.6,29.42,North,0,0.0,0.0,88,0.00,,,0.00,WUHU216HW,2013-06-13 17:31:00,
2013-06-13 13:36:00,66.1,62.4,29.42,North,0,0.0,0.0,88,0.00,,,0.00,WUHU216HW,2013-06-13 17:36:00,
2013-06-13 13:41:00,66.1,62.4,29.42,North,0,0.0,0.0,88,0.00,,,0.00,WUHU216HW,2013-06-13 17:41:00,
2013-06-13 13:46:00,66.6,62.9,29.42,North,0,0.0,0.0,88,0.00,,,0.00,WUHU216HW,2013-06-13 17:46:00,
2013-06-13 13:51:00,66.6,62.9,29.42,North,0,0.0,0.0,88,0.00,,,0.00,WUHU216HW,2013-06-13 17:51:00,
2013-06-13 13:56:00,66.4,62.7,29.41,North,0,0.0,0.0,88,0.00,,,0.00,WUHU216HW,2013-06-13 17:56:00,
2013-06-13 14:01:00,66.2,62.6,29.41,North,0,0.0,0.0,88,0.00,,,0.00,WUHU216HW,2013-06-13 18:01:00,
2013-06-13 14:06:00,66.6,62.9,29.40,North,0,0.0,0.0,88,0.00,,,0.00,WUHU216HW,2013-06-13 18:06:00,
2013-06-13 14:11:00,66.4,62.7,29.39,North,0,0.0,0.0,88,0.00,,,0.00,WUHU216HW,2013-06-13 18:11:00,
2013-06-13 14:16:00,66.6,62.9,29.39,North,0,0.0,0.0,88,0.00,,,0.00,WUHU216HW,2013-06-13 18:16:00,
2013-06-13 14:21:00,66.4,62.4,29.40,North,0,0.0,0.0,87,0.00,,,0.00,WUHU216HW,2013-06-13 18:21:00,
2013-06-13 14:26:00,66.2,62.2,29.39,North,0,0.0,0.0,87,0.00,,,0.00,WUHU216HW,2013-06-13 18:26:00,
2013-06-13 14:31:00,66.2,62.2,29.39,North,0,0.0,0.0,87,0.00,,,0.00,WUHU216HW,2013-06-13 18:31:00,
2013-06-13 14:37:00,65.9,61.6,29.40,North,0,0.0,0.0,86,0.00,,,0.00,WUHU216HW,2013-06-13 18:37:00,
2013-06-13 14:42:00,66.1,62.0,29.39,North,0,0.0,0.0,87,0.00,,,0.00,WUHU216HW,2013-06-13 18:42:00,
2013-06-13 14:47:00,66.2,62.2,29.39,North,0,0.0,0.0,87,0.00,,,0.00,WUHU216HW,2013-06-13 18:47:00,
2013-06-13 14:52:00,66.6,62.3,29.40,North,0,0.0,0.0,86,0.00,,,0.00,WUHU216HW,2013-06-13 18:52:00,
2013-06-13 14:57:00,66.6,62.3,29.41,North,0,0.0,0.0,86,0.00,,,0.00,WUHU216HW,2013-06-13 18:57:00,
2013-06-13 15:02:00,66.6,62.3,29.41,North,0,0.0,0.0,86,0.00,,,0.00,WUHU216HW,2013-06-13 19:02:00,
2013-06-13 15:07:00,66.2,61.9,29.41,North,0,0.0,0.0,86,0.00,,,0.00,WUHU216HW,2013-06-13 19:07:00,
2013-06-13 15:12:00,66.1,61.8,29.41,North,0,0.0,0.0,86,0.00,,,0.00,WUHU216HW,2013-06-13 19:12:00,
2013-06-13 15:17:00,65.7,61.8,29.41,North,0,0.0,0.0,87,0.00,,,0.00,WUHU216HW,2013-06-13 19:17:00,
2013-06-13 15:22:00,65.5,61.6,29.40,North,0,0.0,0.0,87,0.00,,,0.00,WUHU216HW,2013-06-13 19:22:00,
2013-06-13 15:27:00,65.3,61.8,29.40,North,0,0.0,0.0,88,0.00,,,0.00,WUHU216HW,2013-06-13 19:27:00,
2013-06-13 15:32:00,65.3,61.8,29.39,North,0,0.0,0.0,88,0.00,,,0.00,WUHU216HW,2013-06-13 19:32:00,
2013-06-13 15:38:00,65.9,62.2,29.38,North,0,0.0,0.0,88,0.00,,,0.00,WUHU216HW,2013-06-13 19:38:00,
2013-06-13 15:43:00,67.1,63.1,29.38,North,0,0.0,0.0,87,0.00,,,0.00,WUHU216HW,2013-06-13 19:43:00,
2013-06-13 15:48:00,67.7,63.0,29.37,North,0,0.0,0.0,85,0.00,,,0.00,WUHU216HW,2013-06-13 19:48:00,
2013-06-13 15:53:00,68.2,63.6,29.37,North,0,0.0,0.0,85,0.00,,,0.00,WUHU216HW,2013-06-13 19:53:00,
2013-06-13 15:58:00,68.9,64.3,29.37,North,0,0.0,0.0,85,0.00,,,0.00,WUHU216HW,2013-06-13 19:58:00,
2013-06-13 16:03:00,69.5,64.4,29.37,North,0,0.0,0.0,84,0.00,,,0.00,WUHU216HW,2013-06-13 20:03:00,
2013-06-13 16:08:00,69.8,64.4,29.36,North,0,0.0,0.0,83,0.00,,,0.00,WUHU216HW,2013-06-13 20:08:00,
2013-06-13 16:13:00,70.2,64.7,29.36,North,0,0.0,0.0,83,0.00,,,0.00,WUHU216HW,2013-06-13 20:13:00,
2013-06-13 16:18:00,70.4,64.3,29.35,North,0,0.0,0.0,81,0.00,,,0.00,WUHU216HW,2013-06-13 20:18:00,
2013-06-13 16:23:00,69.8,64.4,29.35,North,0,0.0,0.0,83,0.00,,,0.00,WUHU216HW,2013-06-13 20:23:00,
2013-06-13 16:28:00,69.3,63.9,29.35,North,0,0.0,0.0,83,0.00,,,0.00,WUHU216HW,2013-06-13 20:28:00,
2013-06-13 16:33:00,69.7,64.5,29.34,North,0,0.0,0.0,84,0.00,,,0.00,WUHU216HW,2013-06-13 20:33:00,
2013-06-13 16:38:00,69.8,64.7,29.33,North,0,0.0,0.0,84,0.00,,,0.00,WUHU216HW,2013-06-13 20:38:00,
2013-06-13 16:43:00,69.1,64.1,29.33,North,0,0.0,0.0,84,0.00,,,0.00,WUHU216HW,2013-06-13 20:43:00,
2013-06-13 16:49:00,68.8,64.1,29.33,North,0,0.0,0.0,85,0.00,,,0.00,WUHU216HW,2013-06-13 20:49:00,
2013-06-13 16:54:00,68.6,63.9,29.33,North,0,0.0,0.0,85,0.00,,,0.00,WUHU216HW,2013-06-13 20:54:00,
2013-06-13 16:59:00,68.6,64.2,29.33,North,0,0.0,0.0,86,0.00,,,0.00,WUHU216HW,2013-06-13 20:59:00,
2013-06-13 17:04:00,68.2,63.9,29.32,North,0,0.0,0.0,86,0.00,,,0.00,WUHU216HW,2013-06-13 21:04:00,
2013-06-13 17:09:00,68.0,63.7,29.31,North,0,0.0,0.0,86,0.00,,,0.00,WUHU216HW,2013-06-13 21:09:00,
2013-06-13 17:14:00,68.4,64.0,29.31,North,0,0.0,0.0,86,0.00,,,0.00,WUHU216HW,2013-06-13 21:14:00,
2013-06-13 17:19:00,68.6,64.2,29.31,North,0,0.0,0.0,86,0.00,,,0.00,WUHU216HW,2013-06-13 21:19:00,
2013-06-13 17:24:00,68.8,64.1,29.31,North,0,0.0,0.0,85,0.00,,,0.00,WUHU216HW,2013-06-13 21:24:00,
2013-06-13 17:29:00,68.8,64.1,29.30,North,0,0.0,0.0,85,0.00,,,0.00,WUHU216HW,2013-06-13 21:29:00,
2013-06-13 17:34:00,68.4,64.0,29.30,North,0,0.0,0.0,86,0.00,,,0.00,WUHU216HW,2013-06-13 21:34:00,
2013-06-13 17:39:00,68.0,63.7,29.29,North,0,0.0,0.0,86,0.00,,,0.00,WUHU216HW,2013-06-13 21:39:00,
2013-06-13 17:45:00,67.7,63.6,29.29,North,0,0.0,0.0,87,0.00,,,0.00,WUHU216HW,2013-06-13 21:45:00,
2013-06-13 17:50:00,67.9,63.8,29.29,North,0,0.0,0.0,87,0.00,,,0.00,WUHU216HW,2013-06-13 21:50:00,
2013-06-13 17:55:00,68.0,63.7,29.28,North,0,0.0,0.0,86,0.00,,,0.00,WUHU216HW,2013-06-13 21:55:00,
2013-06-13 18:00:00,68.0,63.7,29.28,North,0,0.0,0.0,86,0.00,,,0.00,WUHU216HW,2013-06-13 22:00:00,
2013-06-13 18:05:00,67.9,63.6,29.26,North,0,0.0,0.0,86,0.00,,,0.00,WUHU216HW,2013-06-13 22:05:00,
2013-06-13 18:10:00,67.7,63.6,29.28,North,0,0.0,0.0,87,0.00,,,0.00,WUHU216HW,2013-06-13 22:10:00,
2013-06-13 18:15:00,66.6,62.9,29.30,North,0,0.0,0.0,88,0.00,,,0.00,WUHU216HW,2013-06-13 22:15:00,
2013-06-13 18:20:00,65.2,61.8,29.30,North,0,0.0,0.0,89,0.00,,,0.00,WUHU216HW,2013-06-13 22:20:00,
2013-06-13 18:25:00,64.8,61.9,29.31,North,0,0.0,0.0,90,0.00,,,0.00,WUHU216HW,2013-06-13 22:25:00,
2013-06-13 18:30:00,64.8,62.2,29.31,North,0,0.0,0.0,91,0.00,,,0.00,WUHU216HW,2013-06-13 22:30:00,
2013-06-13 18:35:00,64.6,62.0,29.31,North,0,0.0,0.0,91,0.00,,,0.00,WUHU216HW,2013-06-13 22:35:00,
2013-06-13 18:40:00,64.1,61.7,29.30,North,0,0.0,0.0,92,0.00,,,0.00,WUHU216HW,2013-06-13 22:40:00,
2013-06-13 18:46:00,63.9,61.6,29.31,North,0,0.0,0.0,92,0.00,,,0.00,WUHU216HW,2013-06-13 22:46:00,
2013-06-13 18:51:00,63.5,61.2,29.32,North,0,0.0,0.0,92,0.00,,,0.00,WUHU216HW,2013-06-13 22:51:00,
2013-06-13 18:56:00,63.4,61.4,29.30,North,0,0.0,0.0,93,0.00,,,0.00,WUHU216HW,2013-06-13 22:56:00,
2013-06-13 19:01:00,63.4,61.4,29.30,North,0,0.0,0.0,93,0.00,,,0.00,WUHU216HW,2013-06-13 23:01:00,
2013-06-13 19:06:00,63.0,61.0,29.32,North,0,0.0,0.0,93,0.00,,,0.00,WUHU216HW,2013-06-13 23:06:00,
2013-06-13 19:11:00,63.0,61.0,29.30,North,0,0.0,0.0,93,0.00,,,0.00,WUHU216HW,2013-06-13 23:11:00,
2013-06-13 19:16:00,63.0,61.0,29.32,North,0,0.0,0.0,93,0.00,,,0.00,WUHU216HW,2013-06-13 23:16:00,
2013-06-13 19:21:00,62.8,60.9,29.32,North,0,0.0,0.0,93,0.00,,,0.00,WUHU216HW,2013-06-13 23:21:00,
2013-06-13 19:26:00,62.6,60.7,29.31,North,0,0.0,0.0,93,0.00,,,0.00,WUHU216HW,2013-06-13 23:26:00,
2013-06-13 19:31:00,62.6,60.7,29.30,North,0,0.0,0.0,93,0.00,,,0.00,WUHU216HW,2013-06-13 23:31:00,
2013-06-13 19:36:00,62.5,60.5,29.30,North,0,0.0,0.0,93,0.00,,,0.00,WUHU216HW,2013-06-13 23:36:00,
2013-06-13 19:41:00,62.5,60.5,29.31,North,0,0.0,0.0,93,0.00,,,0.00,WUHU216HW,2013-06-13 23:41:00,
2013-06-13 19:46:00,62.3,60.6,29.32,North,0,0.0,0.0,94,0.00,,,0.00,WUHU216HW,2013-06-13 23:46:00,
2013-06-13 19:51:00,62.3,60.6,29.32,North,0,0.0,0.0,94,0.00,,,0.00,WUHU216HW,2013-06-13 23:51:00,
2013-06-13 19:56:00,62.1,60.4,29.32,North,0,0.0,0.0,94,0.00,,,0.00,WUHU216HW,2013-06-13 23:56:00,
2013-06-13 20:02:00,61.9,60.2,29.32,North,0,0.0,0.0,94,0.00,,,0.00,WUHU216HW,2013-06-14 00:02:00,
2013-06-13 20:07:00,61.7,60.0,29.32,North,0,0.0,0.0,94,0.00,,,0.00,WUHU216HW,2013-06-14 00:07:00,
2013-06-13 20:12:00,61.7,60.0,29.32,North,0,0.0,0.0,94,0.00,,,0.00,WUHU216HW,2013-06-14 00:12:00,
2013-06-13 20:17:00,61.6,59.9,29.31,North,0,0.0,0.0,94,0.00,,,0.00,WUHU216HW,2013-06-14 00:17:00,
2013-06-13 20:22:00,61.6,59.9,29.31,North,0,0.0,0.0,94,0.00,,,0.00,WUHU216HW,2013-06-14 00:22:00,
2013-06-13 20:27:00,61.4,59.7,29.31,North,0,0.0,0.0,94,0.00,,,0.00,WUHU216HW,2013-06-14 00:27:00,
2013-06-13 20:32:00,61.2,59.5,29.32,North,0,0.0,0.0,94,0.00,,,0.00,WUHU216HW,2013-06-14 00:32:00,
2013-06-13 20:37:00,61.0,59.3,29.32,North,0,0.0,0.0,94,0.00,,,0.00,WUHU216HW,2013-06-14 00:37:00,
2013-06-13 20:42:00,61.0,59.3,29.33,North,0,0.0,0.0,94,0.00,,,0.00,WUHU216HW,2013-06-14 00:42:00,
2013-06-13 20:47:00,60.8,59.1,29.33,North,0,0.0,0.0,94,0.00,,,0.00,WUHU216HW,2013-06-14 00:47:00,
2013-06-13 20:52:00,60.8,59.1,29.32,North,0,0.0,0.0,94,0.00,,,0.00,WUHU216HW,2013-06-14 00:52:00,
2013-06-13 20:57:00,60.8,59.1,29.32,North,0,0.0,0.0,94,0.00,,,0.00,WUHU216HW,2013-06-14 00:57:00,
2013-06-13 21:03:00,60.7,59.0,29.33,North,0,0.0,0.0,94,0.00,,,0.00,WUHU216HW,2013-06-14 01:03:00,
2013-06-13 21:08:00,60.5,58.8,29.32,North,0,0.0,0.0,94,0.00,,,0.00,WUHU216HW,2013-06-14 01:08:00,
2013-06-13 21:13:00,60.5,58.8,29.32,North,0,0.0,0.0,94,0.00,,,0.00,WUHU216HW,2013-06-14 01:13:00,
2013-06-13 21:18:00,60.3,58.6,29.32,North,0,0.0,0.0,94,0.00,,,0.00,WUHU216HW,2013-06-14 01:18:00,
2013-06-13 21:23:00,60.1,58.4,29.33,North,0,0.0,0.0,94,0.00,,,0.00,WUHU216HW,2013-06-14 01:23:00,
2013-06-13 21:28:00,60.1,58.4,29.34,North,0,0.0,0.0,94,0.00,,,0.00,WUHU216HW,2013-06-14 01:28:00,
2013-06-13 21:33:00,60.1,58.4,29.34,North,0,0.0,0.0,94,0.00,,,0.00,WUHU216HW,2013-06-14 01:33:00,
2013-06-13 21:38:00,59.9,58.2,29.34,North,0,0.0,0.0,94,0.00,,,0.00,WUHU216HW,2013-06-14 01:38:00,
2013-06-13 21:43:00,59.8,58.1,29.34,North,0,0.0,0.0,94,0.00,,,0.00,WUHU216HW,2013-06-14 01:43:00,
2013-06-13 21:48:00,59.8,58.1,29.34,North,0,0.0,0.0,94,0.00,,,0.00,WUHU216HW,2013-06-14 01:48:00,
2013-06-13 21:54:00,59.6,57.6,29.35,North,0,0.0,0.0,93,0.00,,,0.00,WUHU216HW,2013-06-14 01:54:00,
2013-06-13 21:59:00,59.6,57.6,29.35,North,0,0.0,0.0,93,0.00,,,0.00,WUHU216HW,2013-06-14 01:59:00,
2013-06-13 22:04:00,59.4,57.4,29.35,North,0,0.0,0.0,93,0.00,,,0.00,WUHU216HW,2013-06-14 02:04:00,
2013-06-13 22:09:00,59.4,57.4,29.35,North,0,0.0,0.0,93,0.00,,,0.00,WUHU216HW,2013-06-14 02:09:00,
2013-06-13 22:14:00,59.2,57.3,29.36,North,0,0.0,0.0,93,0.00,,,0.00,WUHU216HW,2013-06-14 02:14:00,
2013-06-13 22:19:00,59.2,57.5,29.35,North,0,0.0,0.0,94,0.00,,,0.00,WUHU216HW,2013-06-14 02:19:00,
2013-06-13 22:24:00,59.0,57.3,29.35,North,0,0.0,0.0,94,0.00,,,0.00,WUHU216HW,2013-06-14 02:24:00,
2013-06-13 22:29:00,59.0,57.3,29.35,North,0,0.0,0.0,94,0.00,,,0.00,WUHU216HW,2013-06-14 02:29:00,
2013-06-13 22:34:00,58.9,57.2,29.36,North,0,0.0,0.0,94,0.00,,,0.00,WUHU216HW,2013-06-14 02:34:00,
2013-06-13 22:40:00,58.7,57.0,29.36,North,0,0.0,0.0,94,0.00,,,0.00,WUHU216HW,2013-06-14 02:40:00,
2013-06-13 22:45:00,58.7,57.0,29.36,North,0,0.0,0.0,94,0.00,,,0.00,WUHU216HW,2013-06-14 02:45:00,
2013-06-13 22:50:00,58.5,56.8,29.36,North,0,0.0,0.0,94,0.00,,,0.00,WUHU216HW,2013-06-14 02:50:00,
2013-06-13 22:55:00,58.5,56.8,29.36,North,0,0.0,0.0,94,0.00,,,0.00,WUHU216HW,2013-06-14 02:55:00,
2013-06-13 23:00:00,58.3,56.6,29.37,North,0,0.0,0.0,94,0.00,,,0.00,WUHU216HW,2013-06-14 03:00:00,
2013-06-13 23:05:00,58.1,56.4,29.37,North,0,0.0,0.0,94,0.00,,,0.00,WUHU216HW,2013-06-14 03:05:00,
2013-06-13 23:10:00,58.0,56.3,29.37,North,0,0.0,0.0,94,0.00,,,0.00,WUHU216HW,2013-06-14 03:10:00,
2013-06-13 23:15:00,57.8,56.1,29.37,North,0,0.0,0.0,94,0.00,,,0.00,WUHU216HW,2013-06-14 03:15:00,
2013-06-13 23:20:00,57.6,55.9,29.37,North,0,0.0,0.0,94,0.00,,,0.00,WUHU216HW,2013-06-14 03:20:00,
2013-06-13 23:26:00,57.4,55.7,29.37,North,0,0.0,0.0,94,0.00,,,0.00,WUHU216HW,2013-06-14 03:26:00,
2013-06-13 23:31:00,57.2,55.5,29.37,North,0,0.0,0.0,94,0.00,,,0.00,WUHU216HW,2013-06-14 03:31:00,
2013-06-13 23:36:00,57.2,55.5,29.38,North,0,0.0,0.0,94,0.00,,,0.00,WUHU216HW,2013-06-14 03:36:00,
2013-06-13 23:41:00,57.1,55.4,29.38,North,0,0.0,0.0,94,0.00,,,0.00,WUHU216HW,2013-06-14 03:41:00,
2013-06-13 23:46:00,56.9,55.2,29.38,North,0,0.0,0.0,94,0.00,,,0.00,WUHU216HW,2013-06-14 03:46:00,
2013-06-13 23:51:00,56.9,55.2,29.39,North,0,0.0,0.0,94,0.00,,,0.00,WUHU216HW,2013-06-14 03:51:00,
2013-06-13 23:56:00,56.7,55.3,29.39,North,0,0.0,0.0,95,0.00,,,0.00,WUHU216HW,2013-06-14 03:56:00,